Location: Allonne
(49.4086°N, 2.1143°E)
Time: 14:08:20
(UTC+00:00)

Cosmos 1553 Rocket - Pass Details

Date: 03 February 2023
Orbit: 942 x 1007 km, 82.9° (Epoch: 22 March)

Event Time Altitude Azimuth Distance (km) Brightness Sun altitude
Rises 17:54:09 0° 161° (SSE) 3,598 6.9 -10.6°
Reaches altitude 10° 17:56:46 10° 154° (SSE) 2,662 6.2 -11.0°
Maximum altitude 18:02:18 38° 88° (E) 1,413 4.4 -11.9°
Drops below altitude 10° 18:07:56 10° 22° (NNE) 2,709 6.0 -12.8°
Sets 18:10:37 0° 15° (NNE) 3,670 6.8 -13.2°
